Kokomo, IN

2:50 PM EDT on July 24, 2017 (GMT -0400)
Kokomo Municipal

Weather History for KOKK - July, 2013

Change the Weather History Date:

Wednesday, July 10, 2013

  Actual Average (KGUS) Record (KGUS)
Temperature  
Mean Temperature 75 °F -  
Max Temperature 86 °F 81 °F 89 °F (2001)
Min Temperature 64 °F 64 °F 55 °F (1996)
Cooling Degree Days 10    
Growing Degree Days 25 (Base 50)    
Moisture  
Dew Point 70 °F    
Average Humidity 78    
Maximum Humidity 94    
Minimum Humidity 69    
Precipitation  
Precipitation 0.33 in - - ()
Sea Level Pressure  
Sea Level Pressure 29.91 in    
Wind  
Wind Speed 13 mph (West)    
Max Wind Speed 36 mph    
Max Gust Speed 50 mph    
Visibility 10 miles    
Events Thunderstorm    
Averages and records for this station are not official NWS values.
T = Trace of Precipitation, MM = Missing Value Source: NWS Daily Summary

Daily Weather History Graph

Daily Weather History Graph

Search for Another Location

Airport or City:

Trip Planner

Search our weather history database for the weather conditions in past years. The results will help you decide how hot, cold, wet, or windy it might be!

Date:

Astronomy

Jul. 10, 2013 Rise Set
Actual Time 5:22 AM CDT 8:16 PM CDT
Civil Twilight 4:50 AM CDT 8:48 PM CDT
Nautical Twilight 4:09 AM CDT 9:29 PM CDT
Astronomical Twilight 3:21 AM CDT 10:16 PM CDT
Moon 7:44 AM CDT (7/10) 9:24 PM CDT (7/10)
Length of Visible Light 15h 58m
Length of Day
14h 53m
Waxing Crescent, 5% of the Moon is Illuminated
Jul 10
Waxing Crescent
Jul 15
First Quarter
Jul 22
Full
Jul 29
Last Quarter
Aug 6
New

Hourly Weather History & Observations

Time (CDT) Temp. Heat Index Dew Point Humidity Pressure Visibility Wind Dir Wind Speed Gust Speed Precip Events Conditions
12:15 AM 80.6 °F 84.6 °F 71.6 °F 74% 29.94 in 10.0 mi SW 12.7 mph - N/A   Mostly Cloudy
12:35 AM 80.6 °F 84.6 °F 71.6 °F 74% 29.93 in 10.0 mi SW 12.7 mph - N/A   Mostly Cloudy
12:55 AM 80.6 °F 84.6 °F 71.6 °F 74% 29.93 in 10.0 mi SW 12.7 mph - N/A   Partly Cloudy
1:15 AM 80.6 °F 84.6 °F 71.6 °F 74% 29.92 in 10.0 mi SW 12.7 mph - N/A   Mostly Cloudy
1:35 AM 78.8 °F - 71.6 °F 78% 29.92 in 10.0 mi SW 13.8 mph - N/A   Scattered Clouds
1:55 AM 78.8 °F - 71.6 °F 78% 29.92 in 10.0 mi SW 12.7 mph 18.4 mph N/A   Clear
2:15 AM 78.8 °F - 71.6 °F 78% 29.92 in 10.0 mi SW 13.8 mph - N/A   Clear
2:35 AM 78.8 °F - 71.6 °F 78% 29.92 in 10.0 mi SW 13.8 mph 19.6 mph N/A   Clear
2:55 AM 78.8 °F - 71.6 °F 78% 29.91 in 10.0 mi SW 12.7 mph - N/A   Clear
3:15 AM 78.8 °F - 71.6 °F 78% 29.91 in 10.0 mi SW 12.7 mph 19.6 mph N/A   Clear
3:35 AM 78.8 °F - 71.6 °F 78% 29.91 in 10.0 mi SW 12.7 mph - N/A   Clear
3:55 AM 78.8 °F - 71.6 °F 78% 29.91 in 10.0 mi WSW 12.7 mph - N/A   Clear
4:15 AM 78.8 °F - 71.6 °F 78% 29.90 in 10.0 mi SW 12.7 mph 18.4 mph N/A   Clear
4:35 AM 77.0 °F - 71.6 °F 83% 29.90 in 10.0 mi SW 11.5 mph - N/A   Clear
4:55 AM 77.0 °F - 71.6 °F 83% 29.90 in 10.0 mi SW 11.5 mph - N/A   Scattered Clouds
5:15 AM 77.0 °F - 71.6 °F 83% 29.90 in 10.0 mi SW 11.5 mph - N/A   Scattered Clouds
5:35 AM 77.0 °F - 71.6 °F 83% 29.89 in 10.0 mi SW 15.0 mph - N/A   Clear
5:55 AM 77.0 °F - 71.6 °F 83% 29.89 in 10.0 mi SW 10.4 mph - N/A   Clear
6:15 AM 77.0 °F - 71.6 °F 83% 29.88 in 10.0 mi SW 11.5 mph - N/A   Clear
6:35 AM 78.8 °F - 73.4 °F 83% 29.88 in 10.0 mi SW 10.4 mph - N/A   Clear
6:55 AM 80.6 °F 85.4 °F 73.4 °F 79% 29.88 in 10.0 mi SW 11.5 mph - N/A   Clear
7:15 AM 80.6 °F 85.4 °F 73.4 °F 79% 29.88 in 10.0 mi SW 12.7 mph - N/A   Clear
7:35 AM 82.4 °F 88.2 °F 73.4 °F 74% 29.88 in 10.0 mi WSW 15.0 mph - N/A   Clear
7:55 AM 82.4 °F 88.2 °F 73.4 °F 74% 29.89 in 10.0 mi WSW 15.0 mph - N/A   Scattered Clouds
8:15 AM 82.4 °F 88.2 °F 73.4 °F 74% 29.88 in 10.0 mi WSW 13.8 mph - N/A   Overcast
8:35 AM 82.4 °F 88.2 °F 73.4 °F 74% 29.88 in 10.0 mi WSW 11.5 mph - N/A   Mostly Cloudy
8:55 AM 82.4 °F 88.2 °F 73.4 °F 74% 29.88 in 10.0 mi SW 11.5 mph 16.1 mph N/A   Mostly Cloudy
9:15 AM 84.2 °F 92.3 °F 75.2 °F 74% 29.87 in 10.0 mi WSW 15.0 mph 20.7 mph N/A   Scattered Clouds
9:35 AM 86.0 °F 95.1 °F 75.2 °F 70% 29.86 in 10.0 mi WSW 11.5 mph - N/A Thunderstorm Scattered Clouds
9:55 AM 84.2 °F 92.3 °F 75.2 °F 74% 29.85 in 10.0 mi SW 8.1 mph - N/A Thunderstorm Partly Cloudy
10:15 AM 84.2 °F 92.3 °F 75.2 °F 74% 29.86 in 10.0 mi WSW 10.4 mph - N/A   Scattered Clouds
10:35 AM 84.2 °F 92.3 °F 75.2 °F 74% 29.86 in 10.0 mi WSW 10.4 mph - N/A   Scattered Clouds
10:55 AM 84.2 °F 92.3 °F 75.2 °F 74% 29.86 in 10.0 mi WSW 11.5 mph - N/A   Clear
11:15 AM 84.2 °F 92.3 °F 75.2 °F 74% 29.88 in 10.0 mi WSW 11.5 mph - N/A   Clear
11:35 AM 82.4 °F 89.5 °F 75.2 °F 79% 29.88 in 10.0 mi WSW 16.1 mph 19.6 mph N/A   Partly Cloudy
11:55 AM 80.6 °F 85.4 °F 73.4 °F 79% 29.87 in 10.0 mi SW 12.7 mph - N/A   Clear
12:15 PM 80.6 °F 85.4 °F 73.4 °F 79% 29.89 in 10.0 mi WSW 18.4 mph 23.0 mph N/A Thunderstorm Scattered Clouds
12:35 PM 73.4 °F - 68.0 °F 83% 29.95 in 3.0 mi West 34.5 mph 49.5 mph 0.07 in Thunderstorm Thunderstorm
12:55 PM 69.8 °F - 66.2 °F 88% 30.01 in 4.0 mi WNW 35.7 mph 48.3 mph 0.22 in Thunderstorm Thunderstorm
1:15 PM 69.8 °F - 66.2 °F 88% 30.00 in 10.0 mi West 18.4 mph 28.8 mph 0.02 in Thunderstorm Thunderstorm
1:35 PM 71.6 °F - 66.2 °F 83% 29.98 in 10.0 mi West 17.3 mph 23.0 mph 0.04 in Thunderstorm Thunderstorm
1:55 PM 71.6 °F - 68.0 °F 88% 29.98 in 10.0 mi NW 10.4 mph - 0.08 in Thunderstorm Overcast
2:15 PM 71.6 °F - 69.8 °F 94% 29.94 in 10.0 mi WNW 8.1 mph - 0.03 in   Mostly Cloudy
2:35 PM 73.4 °F - 69.8 °F 88% 29.91 in 10.0 mi WNW 9.2 mph - 0.03 in   Mostly Cloudy
2:55 PM 75.2 °F - 71.6 °F 89% 29.88 in 10.0 mi WNW 17.3 mph - 0.03 in   Partly Cloudy
3:15 PM 77.0 °F - 71.6 °F 83% 29.85 in 10.0 mi WNW 13.8 mph - N/A   Clear
3:35 PM 78.8 °F - 69.8 °F 74% 29.84 in 10.0 mi WNW 15.0 mph - N/A   Clear
3:55 PM 78.8 °F - 69.8 °F 74% 29.83 in 10.0 mi WNW 13.8 mph - N/A   Clear
4:15 PM 80.6 °F 84.6 °F 71.6 °F 74% 29.82 in 10.0 mi NW 12.7 mph - N/A   Clear
4:35 PM 82.4 °F 87.2 °F 71.6 °F 70% 29.82 in 10.0 mi NNW 12.7 mph - N/A   Clear
4:55 PM 80.6 °F 84.6 °F 71.6 °F 74% 29.84 in 10.0 mi NW 15.0 mph 19.6 mph N/A   Clear
5:15 PM 80.6 °F 84.6 °F 71.6 °F 74% 29.84 in 10.0 mi NNW 13.8 mph - N/A   Mostly Cloudy
5:35 PM 78.8 °F - 71.6 °F 78% 29.84 in 10.0 mi NW 13.8 mph - N/A   Overcast
5:55 PM 78.8 °F - 71.6 °F 78% 29.85 in 10.0 mi NNW 13.8 mph - N/A   Mostly Cloudy
6:15 PM 78.8 °F - 71.6 °F 78% 29.87 in 10.0 mi North 9.2 mph - N/A   Mostly Cloudy
6:35 PM 78.8 °F - 69.8 °F 74% 29.88 in 10.0 mi North 11.5 mph - N/A   Mostly Cloudy
6:55 PM 77.0 °F - 69.8 °F 78% 29.89 in 10.0 mi North 9.2 mph - N/A   Overcast
7:15 PM 77.0 °F - 68.0 °F 74% 29.90 in 10.0 mi North 12.7 mph 16.1 mph N/A   Overcast
7:35 PM 75.2 °F - 64.4 °F 69% 29.91 in 10.0 mi North 12.7 mph - N/A   Mostly Cloudy
7:55 PM 73.4 °F - 64.4 °F 73% 29.93 in 10.0 mi North 9.2 mph - N/A   Mostly Cloudy
8:15 PM 73.4 °F - 64.4 °F 73% 29.94 in 10.0 mi North 5.8 mph - N/A   Overcast
8:35 PM 73.4 °F - 64.4 °F 73% 29.94 in 10.0 mi NNE 5.8 mph - N/A   Mostly Cloudy
8:55 PM 71.6 °F - 64.4 °F 78% 29.95 in 10.0 mi NNE 4.6 mph - N/A   Mostly Cloudy
9:15 PM 71.6 °F - 64.4 °F 78% 29.96 in 10.0 mi NE 3.5 mph - N/A   Overcast
9:35 PM 71.6 °F - 64.4 °F 78% 29.97 in 10.0 mi NNE 4.6 mph - N/A   Overcast
9:55 PM 69.8 °F - 62.6 °F 78% 29.97 in 10.0 mi NNE 5.8 mph - N/A   Mostly Cloudy
10:15 PM 68.0 °F - 62.6 °F 83% 29.98 in 10.0 mi North 6.9 mph - N/A   Partly Cloudy
10:35 PM 68.0 °F - 60.8 °F 78% 29.98 in 10.0 mi North 4.6 mph - N/A   Clear
10:55 PM 66.2 °F - 60.8 °F 83% 29.99 in 10.0 mi North 6.9 mph - N/A   Clear
11:15 PM 64.4 °F - 60.8 °F 88% 29.98 in 10.0 mi North 8.1 mph - N/A   Clear
11:35 PM 64.4 °F - 59.0 °F 83% 29.98 in 10.0 mi North 6.9 mph - N/A   Clear
11:55 PM 64.4 °F - 57.2 °F 77% 29.98 in 10.0 mi North 5.8 mph - N/A   Clear